AB5KT-1 Weather Reports


Display with metric or nautical units.
time (UTC)temp
F
wind
direction
speed
MPH
gust
MPH
rain 1hr
in
rain 24hr
in
rain mn
in
humidity
%
barometer
mb
20260508174955 74 113 1.0 5.0 0.00 0.00 0.00 76 1012.1
20260508174455 73 86 1.0 5.0 0.00 0.00 0.00 76 1012.3
20260508173955 73 110 1.0 6.0 0.00 0.00 0.00 77 1012.3
20260508173455 72 67 2.0 6.0 0.00 0.00 0.00 78 1012.4
20260508172955 71 101 1.0 6.0 0.00 0.00 0.00 78 1012.5
20260508172455 71 67 0.0 5.0 0.00 0.00 0.00 78 1012.6
20260508171954 70 164 0.0 2.0 0.00 0.00 0.00 79 1012.6
20260508171453 70 88 0.0 1.0 0.00 0.00 0.00 79 1012.7
20260508170951 70 88 0.0 2.0 0.00 0.00 0.00 80 1012.8
20260508170452 70 84 0.0 2.0 0.00 0.00 0.00 80 1012.9
20260508165951 69 84 1.0 2.0 0.00 0.00 0.00 81 1012.8
20260508165451 69 40 0.0 2.0 0.00 0.00 0.00 81 1012.9
20260508164952 69 350 0.0 0.0 0.00 0.00 0.00 81 1013.0
20260508164451 68 350 0.0 2.0 0.00 0.00 0.00 81 1013.0
20260508163951 68 350 0.0 2.0 0.00 0.00 0.00 81 1013.1
20260508163449 68 243 1.0 6.0 0.00 0.00 0.00 81 1013.1
20260508162949 68 329 1.0 6.0 0.00 0.00 0.00 81 1013.1
20260508162447 67 326 1.0 5.0 0.00 0.00 0.00 82 1013.0
20260508161947 67 24 2.0 6.0 0.00 0.00 0.00 82 1013.0
20260508161450 67 343 2.0 6.0 0.00 0.00 0.00 82 1013.1
20260508161446 67 342 1.0 6.0 0.00 0.00 0.00 82 1013.0
20260508161049 66 10 2.0 6.0 0.00 0.00 0.00 83 1013.2
20260508160442 66 355 2.0 6.0 0.00 0.00 0.00 83 1013.1
20260508155442 66 40 2.0 5.0 0.00 0.00 0.00 83 1013.2
20260508154941 66 50 3.0 6.0 0.00 0.00 0.00 83 1013.3
20260508154442 65 327 3.0 6.0 0.00 0.00 0.00 83 1013.4
20260508153945 65 342 2.0 5.0 0.00 0.00 0.00 84 1013.6
20260508153941 65 33 3.0 6.0 0.00 0.00 0.00 84 1013.5
20260508152941 65 348 2.0 5.0 0.00 0.00 0.00 84 1013.5
20260508152442 65 15 2.0 5.0 0.00 0.00 0.00 84 1013.8
20260508151940 65 346 1.0 5.0 0.00 0.00 0.00 84 1013.8
20260508151439 65 39 1.0 5.0 0.00 0.00 0.00 84 1014.0
20260508150940 65 13 2.0 6.0 0.00 0.00 0.00 84 1014.0
20260508150439 65 28 3.0 6.0 0.00 0.00 0.00 84 1013.9
20260508145939 65 338 2.0 6.0 0.00 0.00 0.00 84 1013.9
20260508145439 65 355 1.0 4.0 0.00 0.00 0.00 84 1014.1
20260508144937 65 13 2.0 6.0 0.00 0.00 0.00 83 1014.1
20260508144437 65 12 3.0 6.0 0.00 0.00 0.00 84 1014.0
20260508143938 64 82 2.0 6.0 0.00 0.00 0.00 84 1013.9
20260508143436 64 54 2.0 8.0 0.00 0.00 0.00 84 1013.8
20260508142939 64 329 1.0 5.0 0.00 0.00 0.00 84 1013.8
20260508142935 64 321 2.0 8.0 0.00 0.00 0.00 84 1013.8
20260508141935 64 26 1.0 5.0 0.00 0.00 0.00 84 1014.0
20260508141435 63 28 1.0 5.0 0.00 0.00 0.00 84 1014.1
20260508140936 63 40 1.0 5.0 0.00 0.00 0.00 84 1014.0
20260508140439 63 25 2.0 6.0 0.00 0.00 0.00 84 1014.0
20260508140435 63 28 1.0 5.0 0.00 0.00 0.00 84 1014.0
20260508135436 63 57 1.0 6.0 0.00 0.00 0.00 83 1014.1
20260508134934 63 351 2.0 6.0 0.00 0.00 0.00 83 1014.1
20260508134434 63 38 2.0 6.0 0.00 0.00 0.00 83 1014.0
20260508133933 63 36 2.0 5.0 0.00 0.00 0.00 83 1013.9
20260508133438 63 21 3.0 8.0 0.00 0.00 0.00 82 1013.8
20260508133434 63 81 2.0 8.0 0.00 0.00 0.00 83 1013.8
20260508132436 63 46 3.0 10.0 0.00 0.00 0.00 82 1013.6
20260508132432 63 37 4.0 10.0 0.00 0.00 0.00 82 1013.5
20260508131430 63 15 3.0 8.0 0.00 0.00 0.00 82 1013.3
20260508130929 63 38 2.0 6.0 0.00 0.00 0.00 83 1013.4
20260508130432 62 42 2.0 7.0 0.00 0.00 0.00 83 1013.5
20260508130428 63 57 2.0 6.0 0.00 0.00 0.00 83 1013.5
20260508125429 62 74 3.0 7.0 0.00 0.00 0.00 83 1013.5
20260508125425 62 346 3.0 5.0 0.00 0.00 0.00 83 1013.5
20260508124423 62 38 1.0 5.0 0.00 0.00 0.00 83 1013.7
20260508123923 62 14 1.0 5.0 0.00 0.00 0.00 83 1013.7
20260508123423 62 31 2.0 5.0 0.00 0.00 0.00 83 1013.7
20260508122921 62 26 2.0 6.0 0.00 0.00 0.00 83 1013.6
20260508122425 62 25 2.0 6.0 0.00 0.00 0.00 83 1013.9
20260508122421 62 33 3.0 6.0 0.00 0.00 0.00 83 1013.7
20260508122025 63 35 2.0 7.0 0.00 0.00 0.00 83 1013.9
20260508121525 63 23 3.0 7.0 0.00 0.00 0.00 83 1013.8
20260508120421 63 355 3.0 7.0 0.00 0.00 0.00 83 1013.9
20260508115921 63 15 2.0 6.0 0.00 0.00 0.00 83 1014.0
20260508115421 63 76 2.0 6.0 0.00 0.00 0.00 83 1014.1
20260508114922 63 35 1.0 4.0 0.00 0.00 0.00 83 1014.3
20260508114918 63 19 1.0 6.0 0.00 0.00 0.00 83 1014.1
20260508113918 63 27 1.0 4.0 0.00 0.00 0.00 83 1014.2
20260508113419 63 34 1.0 4.0 0.00 0.00 0.00 83 1014.2
20260508112922 63 345 3.0 8.0 0.00 0.00 0.00 83 1014.0
20260508112918 63 5 2.0 8.0 0.00 0.00 0.00 83 1014.1
20260508111919 63 21 1.0 7.0 0.00 0.00 0.00 84 1013.9
20260508111420 63 304 3.0 7.0 0.00 0.00 0.00 84 1013.6
20260508111416 63 9 2.0 7.0 0.00 0.00 0.00 84 1014.0
20260508110419 63 18 2.0 6.0 0.00 0.00 0.00 84 1013.5
20260508110414 63 28 3.0 6.0 0.00 0.00 0.00 84 1013.6
20260508105415 63 32 2.0 7.0 0.00 0.00 0.00 84 1013.4
20260508104913 63 51 2.0 7.0 0.00 0.00 0.00 84 1013.5
20260508104412 63 329 3.0 7.0 0.00 0.00 0.00 84 1013.7
20260508103911 63 64 3.0 6.0 0.00 0.00 0.00 84 1013.4
20260508103411 63 20 2.0 6.0 0.00 0.00 0.00 83 1014.0
20260508102910 63 254 1.0 4.0 0.00 0.00 0.00 84 1014.5
20260508102410 63 15 0.0 4.0 0.00 0.00 0.00 84 1014.5
20260508101911 63 18 0.0 1.0 0.00 0.00 0.00 84 1014.3
20260508101411 63 18 0.0 1.0 0.00 0.00 0.00 84 1014.2
20260508100908 63 18 0.0 2.0 0.00 0.00 0.00 84 1014.1
20260508100409 63 18 0.0 2.0 0.00 0.00 0.00 84 1013.7
20260508095907 63 21 0.0 2.0 0.00 0.00 0.00 84 1013.6
20260508095407 63 21 0.0 2.0 0.00 0.00 0.00 84 1013.7
20260508094904 63 327 0.0 2.0 0.00 0.00 0.00 84 1013.9
20260508094403 63 271 0.0 2.0 0.00 0.00 0.00 84 1014.1
20260508093901 63 350 0.0 2.0 0.00 0.00 0.00 84 1014.0
20260508093359 63 341 0.0 4.0 0.00 0.00 0.00 83 1013.8
20260508092859 63 294 0.0 4.0 0.00 0.00 0.00 83 1013.8
20260508092357 63 109 1.0 7.0 0.00 0.00 0.00 82 1013.6
20260508091855 64 109 1.0 7.0 0.00 0.00 0.00 81 1013.4
20260508091355 64 94 1.0 5.0 0.00 0.00 0.00 81 1013.1
20260508090854 64 113 1.0 4.0 0.00 0.00 0.00 80 1013.5
20260508090355 64 68 1.0 6.0 0.00 0.00 0.00 80 1014.0
20260508085855 64 10 1.0 6.0 0.00 0.00 0.00 79 1014.1
20260508085354 64 40 2.0 6.0 0.00 0.00 0.00 79 1014.0
20260508084855 64 63 3.0 6.0 0.00 0.00 0.00 79 1013.8
20260508084358 64 34 2.0 6.0 0.00 0.00 0.00 78 1013.9
20260508084353 64 10 1.0 5.0 0.00 0.00 0.00 78 1014.1
20260508083358 64 29 1.0 2.0 0.00 0.00 0.00 78 1014.2
20260508083353 64 19 0.0 2.0 0.00 0.00 0.00 78 1014.2
20260508082353 64 29 1.0 4.0 0.00 0.00 0.00 78 1014.2
20260508081857 64 61 1.0 6.0 0.00 0.00 0.00 77 1014.2
20260508081853 64 51 1.0 6.0 0.00 0.00 0.00 78 1014.2
20260508080853 64 39 1.0 5.0 0.00 0.00 0.00 77 1014.3
20260508080353 64 13 1.0 5.0 0.00 0.00 0.00 77 1014.4
20260508075850 64 84 2.0 5.0 0.00 0.00 0.00 76 1014.0
20260508075349 64 57 1.0 4.0 0.00 0.00 0.00 75 1014.2
20260508074850 64 24 1.0 5.0 0.00 0.00 0.00 75 1014.6
20260508074349 64 32 1.0 5.0 0.00 0.00 0.00 75 1014.5
20260508073849 64 24 0.0 2.0 0.00 0.00 0.00 75 1014.6
20260508073352 64 19 0.0 1.0 0.00 0.00 0.00 75 1014.9
20260508073348 64 19 0.0 1.0 0.00 0.00 0.00 75 1014.8
20260508072347 64 19 0.0 1.0 0.00 0.00 0.00 75 1014.9
20260508071851 64 19 1.0 4.0 0.00 0.00 0.00 74 1015.0
20260508071847 64 19 0.0 2.0 0.00 0.00 0.00 75 1014.8
20260508071451 65 20 1.0 4.0 0.00 0.00 0.00 73 1015.1
20260508070347 65 35 0.0 2.0 0.00 0.00 0.00 73 1014.9
20260508065848 65 37 1.0 2.0 0.00 0.00 0.00 70 1015.0
20260508065844 65 35 0.0 2.0 0.00 0.00 0.00 72 1014.9
20260508064844 65 38 1.0 5.0 0.00 0.00 0.00 69 1015.0
20260508064343 65 39 1.0 5.0 0.00 0.00 0.00 69 1014.9
20260508063843 65 34 0.0 4.0 0.00 0.00 0.00 69 1015.0
20260508063343 65 85 0.0 4.0 0.00 0.00 0.00 69 1015.1
20260508062843 65 12 1.0 4.0 0.00 0.00 0.00 69 1015.2
20260508062344 65 29 1.0 5.0 0.00 0.00 0.00 69 1015.0
20260508061843 65 93 2.0 7.0 0.00 0.00 0.00 69 1014.8
20260508061342 65 36 2.0 7.0 0.00 0.00 0.00 69 1014.9
20260508060843 65 5 3.0 7.0 0.00 0.00 0.00 69 1014.8
20260508060344 65 69 3.0 7.0 0.00 0.00 0.00 69 1014.3
20260508055842 65 26 3.0 11.0 0.00 0.00 0.00 69 1014.5
20260508055341 65 19 4.0 11.0 0.00 0.00 0.00 69 1014.4
20260508054838 65 126 4.0 9.0 0.00 0.00 0.00 68 1013.9
20260508054340 65 26 2.0 7.0 0.00 0.00 0.00 68 1014.4
20260508054336 65 53 1.0 6.0 0.00 0.00 0.00 68 1014.4
20260508053335 65 78 1.0 4.0 0.00 0.00 0.00 69 1014.8
20260508052836 65 100 1.0 2.0 0.00 0.00 0.00 69 1015.2
20260508052339 65 323 0.0 1.0 0.00 0.00 0.00 69 1016.1
20260508052335 65 22 0.0 2.0 0.00 0.00 0.00 69 1015.5
20260508051335 65 323 0.0 0.0 0.00 0.00 0.00 69 1016.2
20260508050834 65 323 0.0 0.0 0.00 0.00 0.00 69 1016.2
20260508050333 65 323 0.0 0.0 0.00 0.00 0.00 68 1016.1
20260508045833 66 323 0.0 2.0 0.00 0.00 0.00 69 1015.7
20260508045333 66 323 1.0 4.0 0.00 0.00 0.00 68 1015.7
20260508044833 66 325 0.0 4.0 0.00 0.00 0.00 68 1015.8
20260508044332 65 307 1.0 4.0 0.00 0.00 0.00 68 1016.0
20260508043833 65 321 1.0 4.0 0.00 0.00 0.00 68 1015.9
20260508043333 65 233 0.0 6.0 0.00 0.00 0.00 68 1015.9
20260508042832 65 163 0.0 6.0 0.00 0.00 0.00 67 1015.6
20260508042331 65 163 2.0 8.0 0.00 0.00 0.00 67 1014.9
20260508041830 66 107 3.0 8.0 0.00 0.00 0.00 66 1014.2
20260508041331 66 49 3.0 8.0 0.00 0.00 0.00 66 1014.1
20260508040831 66 51 3.0 11.0 0.00 0.00 0.00 66 1014.2
20260508040331 66 46 4.0 11.0 0.00 0.00 0.00 66 1013.7
20260508035830 66 39 4.0 13.0 0.00 0.00 0.00 65 1013.5
20260508035333 66 38 4.0 10.0 0.00 0.00 0.00 65 1014.1
20260508035329 66 44 3.0 13.0 0.00 0.00 0.00 65 1013.6
20260508034333 66 26 3.0 7.0 0.00 0.00 0.00 64 1014.6
20260508034329 66 94 4.0 10.0 0.00 0.00 0.00 64 1014.3
20260508033329 66 28 3.0 6.0 0.00 0.00 0.00 64 1014.7
20260508032829 67 44 3.0 7.0 0.00 0.00 0.00 65 1014.5
20260508032328 67 34 3.0 7.0 0.00 0.00 0.00 64 1014.5
20260508031829 67 17 2.0 6.0 0.00 0.00 0.00 64 1014.8
20260508031329 67 66 2.0 6.0 0.00 0.00 0.00 64 1015.0
20260508030829 67 355 2.0 7.0 0.00 0.00 0.00 64 1015.4
20260508030327 67 86 3.0 7.0 0.00 0.00 0.00 64 1015.6
20260508025827 67 345 2.0 7.0 0.00 0.00 0.00 65 1015.7
20260508025328 67 0 1.0 4.0 0.00 0.00 0.00 65 1015.8
20260508024827 67 22 1.0 4.0 0.00 0.00 0.00 65 1015.7
20260508024327 67 19 1.0 6.0 0.00 0.00 0.00 65 1015.6
20260508023826 67 26 2.0 6.0 0.00 0.00 0.00 64 1015.1
20260508023332 67 14 1.0 5.0 0.00 0.00 0.00 64 1015.1
20260508023327 67 346 1.0 4.0 0.00 0.00 0.00 64 1015.1
20260508022936 67 25 2.0 6.0 0.00 0.00 0.00 64 1015.1
20260508022827 67 355 1.0 5.0 0.00 0.00 0.00 64 1015.1
20260508021325 67 9 2.0 6.0 0.00 0.00 0.00 64 1015.0
20260508020825 67 12 1.0 6.0 0.00 0.00 0.00 64 1015.1
20260508020325 67 23 1.0 5.0 0.00 0.00 0.00 64 1015.1
20260508015825 67 32 1.0 5.0 0.00 0.00 0.00 64 1014.8
20260508015325 68 19 1.0 5.0 0.00 0.00 0.00 64 1014.7
20260508014825 68 10 1.0 5.0 0.00 0.00 0.00 65 1014.7
20260508014325 68 33 1.0 4.0 0.00 0.00 0.00 65 1014.5
20260508013825 68 0 1.0 4.0 0.00 0.00 0.00 65 1014.5
20260508013325 68 14 0.0 4.0 0.00 0.00 0.00 65 1014.6
20260508012825 68 5 0.0 1.0 0.00 0.00 0.00 66 1014.3
20260508012324 68 5 0.0 2.0 0.00 0.00 0.00 65 1014.2
20260508011823 68 5 1.0 4.0 0.00 0.00 0.00 64 1014.3
20260508011323 68 5 1.0 4.0 0.00 0.00 0.00 64 1014.4
20260508010823 68 13 0.0 9.0 0.00 0.00 0.00 63 1014.2
20260508010323 68 36 1.0 9.0 0.00 0.00 0.00 63 1014.0
20260508005823 68 111 2.0 9.0 0.00 0.00 0.00 63 1013.3
20260508005323 68 103 3.0 9.0 0.00 0.00 0.00 63 1012.9
20260508004825 68 134 4.0 10.0 0.00 0.00 0.00 63 1012.6
20260508004821 68 101 4.0 10.0 0.00 0.00 0.00 63 1012.6
20260508003821 68 84 5.0 11.0 0.00 0.00 0.00 63 1012.5
20260508003321 68 108 4.0 11.0 0.00 0.00 0.00 63 1012.4
20260508002821 68 108 4.0 15.0 0.00 0.00 0.00 63 1012.5
20260508002321 69 102 5.0 15.0 0.00 0.00 0.00 63 1012.3
20260508001821 69 100 5.0 10.0 0.00 0.00 0.00 62 1012.2
20260508001322 69 126 5.0 11.0 0.00 0.00 0.00 62 1012.8
20260508000821 69 57 6.0 12.0 0.00 0.00 0.00 62 1013.2
20260508000321 69 82 5.0 12.0 0.00 0.00 0.00 62 1013.3
20260507235821 69 135 4.0 11.0 0.00 0.00 0.00 62 1013.4
20260507235321 69 116 4.0 11.0 0.00 0.00 0.00 61 1013.7
20260507234819 69 115 4.0 11.0 0.00 0.00 0.00 61 1014.0
20260507234319 69 59 5.0 12.0 0.00 0.00 0.00 61 1014.2
20260507233823 69 40 5.0 12.0 0.00 0.00 0.00 61 1014.4
20260507233819 69 22 4.0 12.0 0.00 0.00 0.00 61 1014.7
20260507232815 69 74 5.0 10.0 0.00 0.00 0.00 61 1014.8
20260507232319 69 44 6.0 13.0 0.00 0.00 0.00 61 1014.9
20260507232315 69 13 6.0 13.0 0.00 0.00 0.00 60 1014.8
20260507231311 70 53 6.0 11.0 0.00 0.00 0.00 61 1014.7
20260507230811 70 23 5.0 11.0 0.00 0.00 0.00 61 1014.8
20260507230311 70 84 4.0 10.0 0.00 0.00 0.00 62 1014.9
20260507225811 70 36 4.0 10.0 0.00 0.00 0.00 62 1015.0
20260507225311 70 34 4.0 9.0 0.00 0.00 0.00 62 1015.4
20260507224812 70 28 5.0 9.0 0.00 0.00 0.00 61 1015.1
20260507224311 70 34 5.0 10.0 0.00 0.00 0.00 61 1015.0
20260507223813 70 323 5.0 10.0 0.00 0.00 0.00 61 1015.1
20260507223809 70 32 5.0 12.0 0.00 0.00 0.00 62 1015.4
20260507223413 70 105 5.0 12.0 0.00 0.00 0.00 62 1015.2
20260507222306 70 11 5.0 10.0 0.00 0.00 0.00 62 1015.6
20260507221806 70 49 5.0 10.0 0.00 0.00 0.00 62 1015.8
20260507221305 70 34 5.0 12.0 0.00 0.00 0.00 62 1015.8
20260507220805 70 329 5.0 12.0 0.00 0.00 0.00 61 1015.8
20260507220309 70 43 5.0 10.0 0.00 0.00 0.00 63 1015.8
20260507220305 70 26 4.0 10.0 0.00 0.00 0.00 63 1015.7
20260507215307 69 47 6.0 15.0 0.00 0.00 0.00 66 1015.1
20260507214303 69 37 5.0 9.0 0.00 0.00 0.00 68 1015.5
20260507213803 68 26 4.0 13.0 0.00 0.00 0.00 68 1015.7
20260507213301 68 15 3.0 13.0 0.00 0.00 0.00 68 1015.9
20260507212802 69 349 5.0 11.0 0.00 0.00 0.00 69 1015.9
20260507212301 69 24 5.0 11.0 0.00 0.00 0.00 69 1015.6
20260507211800 69 21 5.0 11.0 0.00 0.00 0.00 69 1016.1
20260507211259 69 11 5.0 10.0 0.00 0.00 0.00 69 1016.1
20260507210800 69 20 4.0 10.0 0.00 0.00 0.00 69 1016.3
20260507210259 69 331 4.0 9.0 0.00 0.00 0.00 69 1016.4
20260507205757 69 342 5.0 13.0 0.00 0.00 0.00 69 1016.1
20260507205300 69 346 4.0 11.0 0.00 0.00 0.00 69 1016.1
20260507205256 69 22 5.0 13.0 0.00 0.00 0.00 69 1016.2
20260507204254 69 350 3.0 11.0 0.00 0.00 0.00 70 1016.4
20260507203757 69 62 6.0 12.0 0.00 0.00 0.00 70 1015.9
20260507203753 69 346 5.0 11.0 0.00 0.00 0.00 70 1016.3
20260507202751 69 16 6.0 12.0 0.00 0.00 0.00 70 1015.7
20260507202249 68 82 5.0 12.0 0.00 0.00 0.00 72 1015.5
20260507201751 68 52 5.0 13.0 0.00 0.00 0.00 72 1015.8
20260507201746 68 55 6.0 13.0 0.00 0.00 0.00 71 1016.2
20260507200744 68 18 6.0 13.0 0.00 0.00 0.00 71 1016.4
20260507200243 68 18 6.0 14.0 0.00 0.00 0.00 71 1015.8
20260507195744 67 26 7.0 18.0 0.00 0.00 0.00 72 1015.8
20260507195740 67 9 7.0 18.0 0.00 0.00 0.00 73 1015.7
20260507194842 66 24 6.0 13.0 0.00 0.00 0.00 74 1016.4
20260507194742 66 14 5.0 12.0 0.00 0.00 0.00 74 1016.1
20260507194738 66 355 6.0 15.0 0.00 0.00 0.00 74 1015.9
20260507193237 66 292 6.0 13.0 0.00 0.00 0.00 74 1016.5
20260507192741 66 19 6.0 14.0 0.00 0.00 0.00 73 1016.0
20260507192737 66 21 6.0 14.0 0.00 0.00 0.00 73 1016.2
20260507191737 66 61 5.0 12.0 0.00 0.00 0.00 73 1016.4
20260507191236 67 340 5.0 10.0 0.00 0.00 0.00 73 1017.0
20260507190739 67 347 3.0 12.0 0.00 0.00 0.00 74 1016.6
20260507190735 67 10 5.0 12.0 0.00 0.00 0.00 75 1016.6
20260507185740 66 111 4.0 10.0 0.00 0.00 0.00 74 1016.2
20260507185735 66 338 4.0 9.0 0.00 0.00 0.00 74 1016.5
20260507184738 66 94 5.0 18.0 0.00 0.00 0.00 75 1016.0
20260507184733 66 42 4.0 14.0 0.00 0.00 0.00 74 1016.0
20260507183734 65 119 7.0 18.0 0.00 0.00 0.00 75 1016.1
20260507183233 65 59 6.0 18.0 0.00 0.00 0.00 75 1016.2
20260507182733 65 109 5.0 12.0 0.00 0.00 0.00 76 1016.6
20260507182233 65 22 5.0 12.0 0.00 0.00 0.00 76 1016.6
20260507181734 65 49 6.0 13.0 0.00 0.00 0.00 76 1016.7
20260507181231 65 11 5.0 13.0 0.00 0.00 0.00 76 1016.9
20260507180734 64 355 5.0 12.0 0.00 0.00 0.00 76 1017.3
20260507180730 64 90 5.0 10.0 0.00 0.00 0.00 76 1017.2
20260507175729 64 32 5.0 12.0 0.00 0.00 0.00 76 1017.5